SL-12 R/B(2), 21221

Orbit data source: Space-Track

SL-12 R/B(2), 21221 is space debris in MEO originally from a launch on Thu, 04 Apr 1991 UTC launched from the Tyuratam Missile And Space Complex (TTMTR). Debris objects in space refer to the collection of defunct objects orbiting the Earth. Examples of debris include non-operational satellites, rocket bodies, and fragments generated from explosions, collisions, or faulty payload assembly.

Loading next visibility...
Identifier
21221, 1991-025E
Orbit
MEO
Country
Flag of CISCIS
Related business
Manufacturer
NPO Energiya
Mission
Spacecraft
Bus & Motor
BLOK DM, Unknown motor
Mass
2,440 kg wet, 2,440 kg dry
Launch date (UTC)
1991-04-04 (35 years ago)
Launch vehicle
Unknown
Launch site
Tyuratam Missile And Space Complex (TTMTR)
Object type
Payload
Rocket body
Debris
Shape & HBR
Cyl, 3.1 m
Radar Cross Section
23.597 m², Large (>1 m²)

Expand to show TLE details & history
Last TLE update: 2 days ago

TLE from 2 days ago
0 SL-12 R/B(2)
1 21221U 91025E   26171.26818450 -.00000061  00000-0  00000+0 0  9993
2 21221  64.3435 303.8864 0015564 212.2841 198.7028  2.13167967274109
Epoch: 2026-06-20T06:26Z
TLE epoch observation values (Epoch: 2026-06-20T06:26:11.140Z)
Latitude
44.4769°
Longitude
-33.08197°
Altitude
19,167.532 km
Speed
3.948 km/s
True Right ascension
22h 07m 47s
True Declination
44° 25' 44"
Sunlit
Object was in daylight at epoch
Visualization orbit readout
Latitude
Unknown
Longitude
Unknown
Altitude
Unknown
Speed
Unknown
Apparent Right ascension
Unknown
Apparent Declination
Unknown
Sunlit
N/A
Visualization observer readout
Local Sidereal Time
23:09:03
Azimuth
Unknown
Elevation
Unknown
Doppler factor
Unknown
Orbital elements
Apogee altitude
19,163.954 km
Perigee altitude
19,084.571 km
Semi-major axis
25,502.399 km
Eccentricity
0.00156
Inclination
64.3435°
RAAN
303.8864°
Arg. of periapsis
212.2841°
True anomaly
198.64572°
Mean anomaly
198.7028°
Eccentric anomaly
198.67425°
Mean motion
0.53293 °/min
Orbital period
675.51 mins
BSTAR
0
Loading maneuver chart data...
Computing Atmospheric mass density...
Loading historical data...
Loading historical data...
Loading historical data...
Loading historical data...
Loading historical data...
Loading historical data...
Loading historical data...

Documentation

Showing up to 5 results
|